WZZ5M EDVK-EDLW

Flight info

Callsign WZZ5M
Flight time 0h 17m
Altitude 16000
Route WRB1E WRB T854 TINSA DCT ELVUL
Aircraft A320/M-SDE3FGHIRWY/LB1

Departure

Time 2026-05-07 16:37
Airport Kassel Airport (EDVK)

Arrival

Time 2026-05-07 16:55
Airport Dortmund Airport (EDLW)
Time Latitude Longitude Altitude Speed Heading
2026-05-07 16:17 51.41758 9.38749 847 ft 0 kts 274°
2026-05-07 16:28 51.41762 9.38750 864 ft 0 kts 274°
2026-05-07 16:31 51.41764 9.38746 864 ft 0 kts 301°
2026-05-07 16:32 51.41776 9.38756 858 ft 4 kts 30°
2026-05-07 16:32 51.41815 9.38834 852 ft 12 kts 42°
2026-05-07 16:32 51.41903 9.38863 850 ft 15 kts 11°
2026-05-07 16:32 51.41931 9.39026 864 ft 24 kts 93°
2026-05-07 16:33 51.41915 9.39321 864 ft 29 kts 95°
2026-05-07 16:33 51.41895 9.39667 861 ft 32 kts 94°
2026-05-07 16:33 51.41877 9.40037 864 ft 34 kts 94°
2026-05-07 16:33 51.41865 9.40295 850 ft 16 kts 96°
2026-05-07 16:34 51.41850 9.40501 859 ft 21 kts 95°
2026-05-07 16:34 51.41837 9.40756 848 ft 24 kts 98°
2026-05-07 16:34 51.41836 9.40945 864 ft 10 kts 63°
2026-05-07 16:34 51.41884 9.40980 854 ft 0 kts 357°
2026-05-07 16:35 51.41885 9.40980 854 ft 1 kts 357°
2026-05-07 16:35 51.41921 9.40981 860 ft 12 kts
2026-05-07 16:35 51.41986 9.40875 864 ft 17 kts 266°
2026-05-07 16:35 51.41995 9.40756 848 ft 0 kts 274°
2026-05-07 16:37 51.41996 9.40753 848 ft 4 kts 274°
2026-05-07 16:37 51.42023 9.40294 864 ft 79 kts 275°
2026-05-07 16:37 51.42086 9.39070 860 ft 141 kts 275°
2026-05-07 16:37 51.42199 9.37327 1426 ft 164 kts 278°
2026-05-07 16:38 51.42352 9.35446 2322 ft 179 kts 279°
2026-05-07 16:38 51.42467 9.33374 3188 ft 194 kts 277°
2026-05-07 16:38 51.42593 9.31149 4081 ft 206 kts 278°
2026-05-07 16:38 51.42720 9.28760 4995 ft 225 kts 277°
2026-05-07 16:39 51.42860 9.26137 5868 ft 249 kts 278°
2026-05-07 16:39 51.43073 9.23273 6806 ft 266 kts 278°
2026-05-07 16:39 51.43317 9.20302 7931 ft 273 kts 279°
2026-05-07 16:39 51.43568 9.17264 9179 ft 277 kts 279°
2026-05-07 16:40 51.43820 9.14160 10309 ft 287 kts 278°
2026-05-07 16:40 51.44084 9.10831 10805 ft 318 kts 278°
2026-05-07 16:40 51.44375 9.07117 11009 ft 354 kts 278°
2026-05-07 16:40 51.44693 9.02999 11071 ft 385 kts 277°
2026-05-07 16:41 51.45018 8.98716 11075 ft 388 kts 278°
2026-05-07 16:41 51.45335 8.94420 11074 ft 388 kts 277°
2026-05-07 16:41 51.45651 8.90120 11077 ft 389 kts 277°
2026-05-07 16:41 51.45970 8.85809 11077 ft 390 kts 277°
2026-05-07 16:42 51.46290 8.81487 11080 ft 390 kts 277°
2026-05-07 16:42 51.46605 8.77233 11077 ft 389 kts 277°
2026-05-07 16:42 51.46922 8.72922 11082 ft 389 kts 277°
2026-05-07 16:42 51.47364 8.68656 11080 ft 388 kts 283°
2026-05-07 16:43 51.47949 8.64432 11081 ft 388 kts 283°
2026-05-07 16:43 51.48562 8.60216 11082 ft 387 kts 284°
2026-05-07 16:43 51.49189 8.56010 11082 ft 388 kts 284°
2026-05-07 16:43 51.49813 8.51845 10854 ft 377 kts 284°
2026-05-07 16:44 51.50407 8.47828 10466 ft 363 kts 284°
2026-05-07 16:44 51.50973 8.43952 10077 ft 351 kts 283°
2026-05-07 16:44 51.51515 8.40222 9661 ft 332 kts 284°
2026-05-07 16:44 51.52016 8.36750 9423 ft 306 kts 284°
2026-05-07 16:45 51.52478 8.33552 9269 ft 284 kts 284°
2026-05-07 16:45 51.52914 8.30519 8792 ft 276 kts 284°
2026-05-07 16:45 51.53344 8.27530 8218 ft 273 kts 284°
2026-05-07 16:45 51.53764 8.24591 7915 ft 262 kts 284°
2026-05-07 16:46 51.54028 8.22734 7764 ft 255 kts 284°
2026-05-07 16:46 51.54417 8.19996 7401 ft 248 kts 283°
2026-05-07 16:46 51.54796 8.17339 7028 ft 240 kts 284°
2026-05-07 16:46 51.55159 8.14791 6649 ft 225 kts 284°
2026-05-07 16:47 51.55493 8.12428 6272 ft 209 kts 284°
2026-05-07 16:47 51.55811 8.10176 5887 ft 206 kts 284°
2026-05-07 16:47 51.56113 8.08031 5525 ft 188 kts 284°
2026-05-07 16:47 51.56384 8.06103 5170 ft 165 kts 284°
2026-05-07 16:48 51.56625 8.04379 4774 ft 152 kts 285°
2026-05-07 16:48 51.56853 8.02764 4383 ft 145 kts 285°
2026-05-07 16:48 51.57092 8.01090 4002 ft 166 kts 285°
2026-05-07 16:48 51.57360 7.99217 3619 ft 174 kts 285°
2026-05-07 16:49 51.57628 7.97321 3228 ft 169 kts 285°
2026-05-07 16:49 51.57872 7.95578 2999 ft 149 kts 285°
2026-05-07 16:49 51.58094 7.93979 3002 ft 144 kts 284°
2026-05-07 16:49 51.58311 7.92416 3006 ft 142 kts 285°
2026-05-07 16:50 51.58528 7.90867 3017 ft 148 kts 285°
2026-05-07 16:50 51.58763 7.89193 3018 ft 159 kts 285°
2026-05-07 16:50 51.59010 7.87429 3010 ft 155 kts 285°
2026-05-07 16:50 51.59240 7.85789 3000 ft 146 kts 285°
2026-05-07 16:51 51.59390 7.84193 3001 ft 144 kts 272°
2026-05-07 16:51 51.59213 7.82604 3001 ft 146 kts 245°
2026-05-07 16:51 51.58749 7.81139 2989 ft 148 kts 245°
2026-05-07 16:51 51.58266 7.79663 2857 ft 149 kts 243°
2026-05-07 16:52 51.57775 7.78217 2689 ft 147 kts 241°
2026-05-07 16:52 51.57282 7.76789 2500 ft 146 kts 241°
2026-05-07 16:52 51.56783 7.75353 2309 ft 147 kts 241°
2026-05-07 16:52 51.56282 7.73918 2108 ft 147 kts 240°
2026-05-07 16:53 51.55782 7.72486 1909 ft 147 kts 240°
2026-05-07 16:53 51.55279 7.71047 1722 ft 148 kts 240°
2026-05-07 16:53 51.54774 7.69607 1503 ft 148 kts 240°
2026-05-07 16:53 51.54277 7.68188 1295 ft 144 kts 240°
2026-05-07 16:54 51.53786 7.66790 1088 ft 143 kts 240°
2026-05-07 16:54 51.53295 7.65390 894 ft 145 kts 241°
2026-05-07 16:54 51.52800 7.63980 693 ft 146 kts 242°
2026-05-07 16:54 51.52311 7.62586 503 ft 144 kts 240°
2026-05-07 16:55 51.51845 7.61257 415 ft 104 kts 241°
2026-05-07 16:55 51.51601 7.60555 412 ft 56 kts 240°
2026-05-07 16:55 51.51482 7.60256 413 ft 22 kts 213°
2026-05-07 16:55 51.51371 7.60305 414 ft 16 kts 131°
2026-05-07 16:56 51.51375 7.60435 418 ft 0 kts 62°
2026-05-07 16:56 51.51377 7.60443 410 ft 2 kts 62°
2026-05-07 16:56 51.51383 7.60459 411 ft 0 kts 62°
2026-05-07 16:57 51.51405 7.60525 415 ft 14 kts 61°
2026-05-07 16:57 51.51460 7.60681 419 ft 19 kts 61°
2026-05-07 16:57 51.51529 7.60878 424 ft 19 kts 60°
2026-05-07 16:58 51.51589 7.61067 430 ft 20 kts 67°
2026-05-07 16:58 51.51635 7.61223 429 ft 8 kts 83°
2026-05-07 16:58 51.51589 7.61280 428 ft 10 kts 150°